Kalaheo, HI

6:47 AM HST on February 06, 2016 (GMT -1000)
Kawaikini NCPCS | | Change Station
CLOSE
Current Station
Personal Weather Station
Location: Lihue, HI
Elevation: 342 ft
Nearby Weather Stations
Active Advisory: Wind Advisory Active Notice: Record Report

Elev 342 ft 21.97 °N, 159.40 °W | Updated 1 minute ago

Partly Cloudy
Partly Cloudy
65.6 °F
Feels Like 65.6 °F
N
0.9
Wind Variable Wind from NW
Gusts 2.2 mph

Today
High -- | Low -- °F
--% Chance of Precip.
Yesterday
High -- | Low -- °F
Precip. -- in
Pressure 29.96 in
Visibility 10.0 miles
Clouds Few 6000 ft
Dew Point 66 °F
Humidity 99%
Rainfall Not available.
Snow Depth Not available.
7:14 AM 6:30 PM
Waning Crescent, 5% visible
METAR PHLI 061553Z 28005KT 10SM FEW060 19/17 A2997 RMK AO2 SLP146 T01940167
Pressure 29.96 in
Visibility 10.0 miles
Clouds Few 6000 ft
Dew Point 66 °F
Humidity 99%
Rainfall Not available.
Snow Depth Not available.
7:14 AM 6:30 PM
Waning Crescent, 5% visible
METAR PHLI 061553Z 28005KT 10SM FEW060 19/17 A2997 RMK AO2 SLP146 T01940167

10-Day Weather Forecast

Almanac

Astronomy

Feb. 06, 2016 Rise Set
Actual Time
Civil Twilight
Nautical Twilight
Astronomical Twilight
Moon
Length of Visible Light
Length of Day
Tomorrow will be .
, % of the Moon is Illuminated

Today's Extremes

State Highs State Lows

Community

WunderPhotos

Upload Photos

1,891,017 photos uploaded!

WunderBlog® & News

Nearby

Air Quality

  Air Quality AQ Index Pollutant
Not available.

Snow Depth

Station Depth Elevation

Earthquake Activity

City Distance Mag. Time & Date
Minimum magnitude displayed is 2.5.

Coastal Water Temperatures

Place Temperature

Stations

Nearby Weather Stations

Station Location Temp. Windchill Dew Point Humidity Wind Precip. Elev Updated Type
                   

Watches & Warnings

Wind Advisory
Issued: 3:32 AM HST Feb. 6, 2016 – National Weather Service

... Wind Advisory in effect from 2 PM this afternoon to 6 PM HST
Sunday...

The National Weather Service in Honolulu has issued a Wind
Advisory... which is in effect from 2 PM this afternoon to 6 PM
HST Sunday.

* Timing... late this afternoon through Sunday.

* Winds... north up to 30 mph with gusts up to 55 mph. Winds will
be strongest downwind of higher terrain and in north facing
valleys.

* Impacts... motorists... especially those in high profile
vehicles... are urged to drive with extreme caution. Lightweight
outdoor objects may be blown around... and should be secured
before winds increase.

Precautionary/preparedness actions...

A Wind Advisory means that sustained winds of at least 30 mph...
or gusts of at least 50 mph... are expected. Motorists should use
extra caution.